{"data":{"norad_id":66585,"intl_designator":"2025-268AE","name":"STARLINK-35963","alt_names":[],"object_type":"PAYLOAD","status":"ACTIVE","operator":null,"country":"US","launch_date":"2025-11-21","launch_site_code":"AFETR","launch_vehicle":null,"mission":null,"orbit_class":"UNKNOWN","rcs_meters":null,"size_class":null,"mass_kg":null,"dimensions":null,"purposes":["comms"],"wikipedia_slug":null,"has_3d_model":false,"image_url":null,"decayed_at":null,"tle_current":{"epoch":"2026-09-20T12:40:39.716544Z","epoch_age_seconds":84292,"freshness":"FRESH","line1":"1 66585U 25268AE  26263.52823746  .00014392  00000+0  53123-3 0  9994","line2":"2 66585  43.0011 327.0785 0001288 273.6585  86.4120 15.27595912 47758","mean_motion":15.27595912,"eccentricity":0.0001288,"inclination_deg":43.0011,"raan_deg":327.0785,"arg_perigee_deg":273.6585,"mean_anomaly_deg":86.412,"bstar":0.00053123,"rev_number":4775,"period_min":94.265766796579,"perigee_km":482.11773556854,"apogee_km":483.88516483331,"semimajor_km":6861.1384502009,"source":"CELESTRAK","updated_at":"2026-09-21T09:00:35.975401Z"}}}